CFG7HW EDDH-LEPA

Flight info

Callsign CFG7HW
Flight time N/A
Altitude 38000
Route IDEKO8B/23 IDEKO N850 XAROL DCT BOMBI DCT GIGET DCT ABUKA DCT KRH DCT NATOR DCT LUTIX DCT BENOT DCT NEMOS DCT GEVEA DCT INCUS DCT BALSI DCT RETNO DCT TUPOX DCT MTG DCT DIVKO DCT VATIR N852 VERSO L129 LUNIK
Aircraft A320/M-SDE3FGHIRWY/LB1

Departure

Time 2026-05-01 13:23
Airport Hamburg Helmut Schmidt Airport (EDDH)

Arrival

Time N/A
Airport Palma de Mallorca Airport (LEPA)
Time Latitude Longitude Altitude Speed Heading
2026-05-01 13:07 53.63374 10.00339 46 ft 0 kts 86°
2026-05-01 13:17 53.63373 10.00322 44 ft 3 kts 83°
2026-05-01 13:17 53.63370 10.00290 41 ft 3 kts 72°
2026-05-01 13:18 53.63349 10.00236 44 ft 3 kts 21°
2026-05-01 13:18 53.63338 10.00231 42 ft 0 kts 356°
2026-05-01 13:21 53.63445 10.00218 46 ft 8 kts 356°
2026-05-01 13:21 53.63491 10.00183 46 ft 7 kts 320°
2026-05-01 13:21 53.63524 10.00136 46 ft 6 kts 320°
2026-05-01 13:21 53.63555 10.00092 46 ft 8 kts 320°
2026-05-01 13:22 53.63597 10.00033 46 ft 7 kts 320°
2026-05-01 13:22 53.63605 9.99974 47 ft 7 kts 248°
2026-05-01 13:22 53.63483 9.99725 45 ft 61 kts 230°
2026-05-01 13:22 53.63062 9.98874 44 ft 125 kts 230°
2026-05-01 13:23 53.62406 9.97552 105 ft 166 kts 227°
2026-05-01 13:23 53.61685 9.96073 762 ft 164 kts 226°
2026-05-01 13:23 53.60971 9.94602 1508 ft 161 kts 225°
2026-05-01 13:23 53.60262 9.93149 2173 ft 161 kts 227°
2026-05-01 13:24 53.59551 9.91691 2793 ft 162 kts 226°
2026-05-01 13:24 53.58831 9.90218 3422 ft 168 kts 226°
2026-05-01 13:24 53.58040 9.88610 3732 ft 189 kts 227°
2026-05-01 13:25 53.56197 9.84850 4453 ft 227 kts 227°
2026-05-01 13:25 53.55142 9.82688 4805 ft 251 kts 228°
2026-05-01 13:25 53.53960 9.80419 5414 ft 262 kts 218°
2026-05-01 13:25 53.52391 9.78896 6224 ft 262 kts 200°
2026-05-01 13:26 53.50685 9.77767 7085 ft 265 kts 199°
2026-05-01 13:26 53.48955 9.76652 7904 ft 268 kts 198°
2026-05-01 13:26 53.47200 9.75529 8742 ft 271 kts 198°
2026-05-01 13:26 53.45426 9.74394 9586 ft 275 kts 198°
2026-05-01 13:27 53.43655 9.73261 10373 ft 278 kts 198°
2026-05-01 13:27 53.41809 9.72082 10844 ft 294 kts 198°
2026-05-01 13:27 53.37732 9.69473 11658 ft 325 kts 199°
2026-05-01 13:28 53.33447 9.66719 13092 ft 334 kts 198°
2026-05-01 13:28 53.31263 9.65315 13810 ft 338 kts 198°
2026-05-01 13:29 53.26825 9.62464 15105 ft 345 kts 199°
2026-05-01 13:29 53.22318 9.59583 16323 ft 353 kts 199°
2026-05-01 13:30 53.12942 9.53616 18710 ft 368 kts 199°
2026-05-01 13:31 53.08113 9.50561 19745 ft 375 kts 199°
2026-05-01 13:31 53.00741 9.45914 21341 ft 384 kts 198°
2026-05-01 13:32 52.95480 9.44198 22344 ft 389 kts 185°
2026-05-01 13:33 52.87335 9.42474 23891 ft 398 kts 186°
2026-05-01 13:33 52.81782 9.41295 24648 ft 406 kts 186°
2026-05-01 13:34 52.76192 9.40096 25446 ft 410 kts 185°
2026-05-01 13:34 52.70516 9.38885 26217 ft 414 kts 186°
2026-05-01 13:35 52.64768 9.37671 26948 ft 418 kts 186°
2026-05-01 13:35 52.61874 9.37058 27312 ft 421 kts 186°
2026-05-01 13:35 52.56055 9.35615 28016 ft 425 kts 188°
2026-05-01 13:36 52.53127 9.34813 28348 ft 428 kts 188°
2026-05-01 13:36 52.50225 9.34008 28698 ft 429 kts 188°
2026-05-01 13:36 52.44312 9.32408 29368 ft 433 kts 188°
2026-05-01 13:37 52.41331 9.31627 29670 ft 435 kts 188°
2026-05-01 13:37 52.38332 9.30851 29975 ft 437 kts 188°
2026-05-01 13:37 52.35322 9.30080 30279 ft 438 kts 187°
2026-05-01 13:37 52.32304 9.29307 30541 ft 440 kts 187°
2026-05-01 13:38 52.26220 9.27725 30986 ft 445 kts 188°
2026-05-01 13:38 52.23158 9.26925 31210 ft 446 kts 188°
2026-05-01 13:38 52.20122 9.26224 31423 ft 448 kts 187°
2026-05-01 13:39 52.17025 9.25630 31675 ft 448 kts 186°
2026-05-01 13:39 52.13926 9.25109 31936 ft 449 kts 185°
2026-05-01 13:39 52.10815 9.24611 32187 ft 449 kts 185°
2026-05-01 13:39 52.07699 9.24108 32470 ft 450 kts 185°
2026-05-01 13:40 52.04586 9.23576 32745 ft 450 kts 186°
2026-05-01 13:40 52.01488 9.22910 33026 ft 450 kts 188°
2026-05-01 13:40 51.98393 9.22111 33305 ft 450 kts 189°
2026-05-01 13:40 51.95311 9.21238 33577 ft 450 kts 190°
2026-05-01 13:41 51.92270 9.20356 33858 ft 450 kts 190°
2026-05-01 13:41 51.89184 9.19478 34124 ft 450 kts 190°
2026-05-01 13:41 51.86089 9.18660 34375 ft 451 kts 188°
2026-05-01 13:41 51.82982 9.17944 34603 ft 452 kts 188°
2026-05-01 13:42 51.79861 9.17291 34840 ft 451 kts 187°
2026-05-01 13:42 51.76750 9.16668 35095 ft 451 kts 187°
2026-05-01 13:42 51.73641 9.16040 35366 ft 450 kts 187°